Probability
0 0 0 0 0 0 0 0 0 0 0 0 0 0 0 0 0 0 0 0 0 0 0 0 0 0 0 0 0 0 0 0 0 0 0 0 0 0 0 0 0 0 0
0 0 0 0 0 0 0 0 0 0 0 0 0 0 0 0 0 0 0 0 0 0 0 0 0 0 0 0 0 0 0 0 0 0 0 0 0 0 0 0 0 0 0
0 0 0 0 0 0 0 0 0 0 0 0 0 0 0 0 0 0 0 0 0 0 0 0 0 0 0 0 0 0 0 0 0 0 0 0 0 0 0 0 0 0 0
0 0 0 0 0 0 0 0 0 0 0 0 0 0 0 0 0 0 0 0 0 0 0 0 0 0 0 0 0 0 0 0 0 0 0 0 0 0 0 0 0 0 0
0 0 0 0 0 0 0 0 0 0 0 0 0 0 0 0 0 0 0 0 0 0 0 0 0 0 0 0 0 0 0 0 0 0 0 0 0 0 0 0 0 0 0
0 0 0 0 0 0 0 0 0 0 0 0 0 0 0 0 0 0 0 0 0 0 0 0 0 0 0 0 0 0 0 0 0 0 0 0 0 0 0 0 0 0 0
0 0 0 0 0 0 0 0 0 0 0 0 0 0 0 0 0 0 0 0 0 0 0 0 0 0 0 0 0 0 0 0 0 0 0 0 0 0 0 0 0 0 0
0 0 0 0 0 0 0 0 0 0 0 0 0 0 0 0 0 0 0 0 0 0 0 0 0 0 0 0 0 0 0 0 0 0 0 0 0 0 0 0 0 0 0
0 0 0 0 0 0 0 0 0 0 0 0 0 0 0 0 0 0 0 0 0 0 0 0 0 0 0 0 0 0 0 0 0 0 0 0 0 0 0 0 0 0 0
0 0 0 0 0 0 0 0 0 0 0 0 0 0 0 0 0 0 0 0 0 0 0 0 0 0 0 0 0 0 0 0 0 0 0 0 0 0 0 0 0 0 0
0 0 0 0 0 0 0 0 0 0 0 0 0 0 0 0 0 0 0 0 0 0 0 0 0 0 0 0 0 0 0 0 0 0 0 0 0 0 0 0 0 0 0
0 0 0 0 0 0 0 0 0 0 0 0 0 0 0 0 0 0 0 0 0 0 0 0 0 0 0 0 0 0 0 0 0 0 0 0 0 0 0 0 0 0 0
0 0 0 0 0 0 0 0 0 0 0 0 0 0 0 0 0 0 0 0 0 0 0 0 0 0 0 0 0 0 0 0 0 0 0 0 0 0 0 0 0 0 0
0 0 0 0 0 0 0 0 0 0 0 0 0 0 0 0 0 0 0 0 0 0 0 0 0 0 0 0 0 0 0 0 0 0 0 0 0 0 0 0 0 0 0
0 0 0 0 0 0 0 0 0 0 0 0 0 0 0 0 0 0 0 0 0 0 0 0 0 0 0 0 0 0 0 0 0 0 0 0 0 0 0 0 0 0 0
0 0 0 0 0 0 0 0 0 0 0 0 0 0 0 0 0 0 0 0 0 0 0 0 0 0 0 0 0 0 0 0 0 0 0 0 0 0 0 0 0 0 0
0 0 0 0 0 0 0 0 0 0 0 0 0 0 0 0 0 0 0 0 0 0 0 0 0 0 0 0 0 0 0 0 0 0 0 0 0 0 0 0 0 0 0
0 0 0 0 0 0 0 0 0 0 0 0 0 0 0 0 0 0 0 0 0 0 0 0 0 0 0 0 0 0 0 0 0 0 0 0 0 0 0 0 0 0 0
0 0 0 0 0 0 0 0 0 0 0 0 0 0 0 0 0 0 0 0 0 0 0 0 0 0 0 0 0 0 0 0 0 0 0 0 0 0 0 0 0 0 0
0 0 0 0 0 0 0 0 0 0 0 0 0 0 0 0 0 0 0 0 0 0 0 0 0 0 0 0 0 0 0 0 0 0 0 0 0 0 0 0 0 0 0
0 0 0 0 0 0 0 0 0 0 0 0 0 0 0 0 0 0 0 0 0 0 0 0 0 0 0 0 0 0 0 0 0 0 0 0 0 0 0 0 0 0 0
0 0 0 0 0 0 0 0 0 0 0 0 0 0 0 0 0 0 0 0 0 0 0 0 0 0 0 0 0 0 0 0 0 0 0 0 0 0 0 0 0 0 0
0 0 0 0 0 0 0 0 0 0 0 0 0 0 0 0 0 0 0 0 0 0 0 0 0 0 0 0 0 0 0 0 0 0 0 0 0 0 0 0 0 0 0
0 0 0 0 0 0 0 0 0 0 0 0 0 0 0 0 0 0 0 0 0 0 0 0 0 0 0 0 0 0 0 0 0 0 0 0 0 0 0 0 0 0 0
0 0 0 0 0 0 0 0 0 0 0 0 0 0 0 0 0 0 0 0 0 0 0 0 0 0 0 0 0 0 0 0 0 0 0 0 0 0 0 0 0 0 0
0 0 0 0 0 0 0 0 0 0 0 0 0 0 0 0 0 0 0 0 0 0 0 0 0 0 0 0 0 0 0 0 0 0 0 0 0 0 0 0 0 0 0
Wind_Speed
7 5 6 6 5 5 5 6 6 5 5 4 3 3 2 2 1 1 2 2 2 2 2 2 1 1 1 1 1 1 2 2 2 3 2 3 3 3 2 2 2 3 3
5 5 5 5 6 7 6 6 6 6 6 4 3 3 3 2 2 1 1 2 2 2 2 2 2 1 2 2 1 2 1 1 1 2 2 1 2 2 2 2 2 2 2
9 7 7 7 6 6 7 6 7 6 6 5 3 2 2 1 1 2 2 2 2 2 2 2 2 2 2 2 2 2 2 2 0 1 2 3 2 1 1 1 1 2 2
8 8 8 7 8 7 6 6 6 6 6 5 5 5 4 4 4 3 2 2 2 2 2 2 3 2 2 2 2 1 1 3 2 0 0 1 2 2 1 2 1 2 1
9 9 10 9 8 6 6 6 6 6 6 7 7 6 4 3 2 2 2 2 1 2 2 2 2 2 2 2 2 1 1 1 2 2 1 1 1 1 2 2 2 2 2
8 8 7 6 6 5 5 5 6 6 6 7 8 8 7 5 5 4 3 3 2 2 2 2 2 2 2 2 2 2 2 2 1 1 1 2 2 2 2 2 2 2 2
8 7 7 7 7 7 7 6 7 7 7 7 8 8 8 7 7 6 5 4 3 2 3 3 3 2 2 2 2 2 2 2 2 2 1 1 1 2 2 2 1 2 2
7 8 8 8 8 8 8 8 8 7 7 7 7 7 7 5 5 6 5 5 4 4 4 3 3 3 3 3 2 2 2 2 2 2 2 1 1 1 2 2 2 1 2
6 7 7 7 8 8 9 9 9 8 7 7 6 6 6 6 6 5 4 4 3 3 4 4 3 3 3 3 3 2 2 2 2 2 2 2 1 1 1 2 2 2 2
5 5 6 7 7 7 7 7 8 8 7 7 6 5 6 6 5 5 5 5 4 4 4 4 4 3 3 3 3 2 2 3 2 2 2 2 1 1 1 1 1 2 3
5 5 5 5 5 5 6 7 7 7 6 7 6 6 6 5 5 5 6 5 5 5 5 5 4 4 4 4 3 3 3 3 3 2 3 2 2 2 1 1 1 2 2
4 4 4 4 4 6 6 7 7 7 7 7 6 6 6 6 6 6 6 5 5 5 5 5 5 4 4 4 5 4 4 4 4 3 3 3 2 2 2 2 2 2 2
3 3 3 4 5 6 7 7 8 8 7 6 6 6 6 6 7 6 6 5 5 5 5 5 5 5 5 4 4 4 4 4 4 4 4 4 3 3 2 3 3 2 2
4 4 4 5 5 6 6 7 7 7 7 7 7 7 7 7 6 5 5 5 5 5 5 5 5 5 4 4 4 4 4 4 3 3 4 4 4 4 4 3 3 2 2
5 6 6 6 5 5 5 6 6 6 7 7 7 7 6 5 5 5 5 4 4 5 4 4 4 4 4 4 5 5 4 4 3 3 3 4 4 5 4 3 3 3 2
7 6 6 5 5 6 6 5 6 6 6 7 7 6 5 5 5 5 5 4 4 4 4 4 5 4 4 5 7 6 5 4 4 4 3 3 3 4 5 6 5 4 4
7 7 6 6 6 6 5 6 5 4 6 6 6 6 6 6 6 5 5 5 5 4 4 4 4 4 4 6 6 6 4 4 4 4 3 3 3 3 3 3 4 4 6
6 6 5 5 4 3 3 3 3 4 5 5 4 5 5 6 5 5 5 5 4 4 4 4 4 3 4 6 6 5 4 3 3 4 4 4 3 3 3 2 2 3 3
6 5 5 4 3 3 4 4 3 4 4 4 4 4 5 5 5 6 5 5 4 4 4 3 4 4 4 6 7 6 3 3 3 3 3 4 4 5 5 3 3 3 4
3 2 2 1 2 3 4 5 4 4 5 5 4 4 5 5 6 6 5 4 4 4 4 3 3 4 4 6 7 6 3 3 3 2 3 5 6 6 6 4 4 5 5
1 1 1 2 3 3 4 5 4 5 4 3 3 3 4 4 5 4 4 4 4 3 3 3 3 3 4 5 6 7 4 4 4 3 3 4 7 8 8 6 4 6 4
1 0 1 1 1 2 4 4 4 3 2 3 3 3 3 3 3 4 3 3 4 3 3 3 2 2 3 4 6 7 7 5 4 4 3 4 6 7 7 6 6 7 4
1 0 1 1 0 1 3 4 2 1 3 4 3 3 3 3 3 4 4 3 3 3 3 3 3 3 2 4 6 7 8 7 5 4 5 6 7 7 5 6 6 4 3
1 0 1 1 0 0 0 1 0 2 3 4 3 3 3 3 2 2 3 3 4 4 4 4 4 3 3 3 3 3 4 5 5 4 4 6 7 6 5 4 4 3 3
1 0 1 2 1 0 0 1 1 2 2 3 2 2 2 2 2 2 3 3 4 4 5 4 4 4 4 5 6 4 4 4 4 2 2 2 2 3 3 3 3 3 3
1 0 1 1 0 0 0 1 0 1 2 2 2 2 2 2 2 2 1 3 4 5 6 6 5 4 6 5 7 8 8 7 6 3 3 4 4 5 4 4 4 4 4
Wind_Direction
220 198 192 187 178 179 182 183 181 178 168 164 168 173 179 173 173 173 161 150 144 140 136 134 133 128 129 134 116 122 101 76 89 78 50 29 41 56 48 50 55 44 36
211 199 192 188 187 188 189 192 188 183 179 179 177 179 170 173 176 170 166 167 156 154 149 153 161 156 137 111 108 134 121 105 96 110 107 38 357 14 29 39 52 40 35
208 204 199 198 195 196 193 197 193 185 183 176 157 141 123 114 142 178 192 193 170 167 167 174 168 162 152 153 153 169 148 159 138 101 138 149 203 295 333 5 30 25 27
207 204 201 200 200 205 199 199 193 184 182 175 172 173 178 183 195 188 188 188 181 175 174 175 166 159 154 159 175 177 172 154 166 150 51 133 152 163 274 315 342 347 344
207 207 205 204 203 198 196 198 192 194 186 182 180 181 190 190 171 159 170 181 190 180 173 167 162 165 163 170 170 167 157 164 168 165 148 108 83 133 166 252 298 316 291
213 212 208 201 202 195 194 191 194 201 196 190 187 187 190 182 173 177 184 191 194 192 183 168 168 171 172 176 178 173 174 183 163 157 160 162 165 178 171 211 253 275 279
208 208 203 201 201 199 199 196 196 204 201 195 195 193 192 186 187 189 192 193 191 201 198 178 178 180 182 178 172 169 187 182 169 175 185 187 198 167 162 174 241 280 290
209 210 207 202 201 202 200 196 197 204 200 199 200 197 192 191 196 195 190 197 200 203 192 184 185 187 182 177 171 172 187 171 176 180 179 180 199 170 171 167 169 275 295
217 215 212 207 203 202 201 198 197 201 200 201 197 198 195 196 198 193 187 194 193 185 177 177 177 181 178 178 172 180 188 169 175 179 182 187 192 178 181 171 174 182 241
234 224 217 213 209 204 200 195 197 201 201 197 197 200 198 200 196 184 187 187 184 176 172 177 178 181 185 179 172 177 177 165 175 175 174 187 185 171 171 179 190 196 204
236 228 222 214 207 201 195 195 197 198 200 200 198 196 198 198 191 186 189 185 181 178 179 181 181 185 188 181 176 183 173 177 184 186 182 193 179 176 184 179 185 196 201
239 229 218 209 205 205 201 200 200 201 204 199 195 198 197 189 187 190 189 181 182 183 183 180 183 189 190 186 183 187 183 183 189 193 186 198 185 190 195 193 204 214 213
242 232 221 217 216 213 208 204 203 204 201 192 191 194 194 191 192 191 186 181 182 182 181 179 185 191 191 189 191 189 187 188 195 197 199 204 189 203 207 205 210 214 223
237 229 230 231 226 220 214 207 205 200 193 190 191 196 197 194 191 187 181 181 182 183 185 185 187 191 190 188 186 185 184 188 198 200 204 206 202 206 207 212 213 208 217
248 235 231 234 231 225 222 211 205 197 190 189 193 200 192 183 178 179 178 175 179 186 184 178 185 187 188 194 187 184 182 186 197 203 211 218 220 222 220 219 210 202 214
246 241 236 233 229 222 218 210 204 197 186 192 198 192 177 176 179 181 176 173 180 181 177 186 190 192 202 193 191 185 183 189 197 206 212 219 219 228 234 239 235 220 219
244 238 231 228 227 222 210 207 202 185 182 193 191 183 176 179 183 179 174 181 185 178 184 193 190 197 203 196 197 198 189 192 201 205 208 218 217 213 215 233 247 252 255
242 239 233 230 227 215 201 188 169 168 175 182 181 178 176 181 178 173 180 184 177 179 188 194 191 192 200 194 195 193 186 190 203 206 207 214 221 215 209 204 226 247 256
236 232 225 220 211 200 184 161 162 165 168 181 185 182 178 178 176 180 184 181 173 178 187 186 188 195 205 198 198 194 177 196 211 209 207 211 218 225 220 208 219 249 261
243 231 213 197 196 199 166 160 172 173 191 197 192 181 178 179 183 185 180 173 174 184 184 193 195 201 209 204 203 196 184 198 211 212 217 223 224 228 226 214 215 243 258
270 219 171 192 210 184 160 169 177 199 205 179 163 167 176 182 181 174 165 166 171 171 181 192 200 205 210 213 209 204 194 199 205 216 225 227 229 234 236 230 227 242 252
320 186 178 230 223 160 164 180 202 209 164 148 154 167 172 174 168 164 164 165 168 174 188 193 209 223 220 215 219 217 216 209 208 220 225 228 229 233 237 237 240 248 249
308 320 189 207 54 149 168 189 218 155 146 147 159 164 161 165 165 168 172 171 176 187 200 203 217 227 219 223 224 223 227 228 224 225 232 237 238 239 243 245 246 244 234
302 343 127 150 233 180 165 224 157 135 152 163 166 163 164 164 166 178 182 185 190 196 204 211 219 226 226 223 216 216 224 229 234 238 238 243 249 250 251 250 246 238 230
320 103 171 197 224 177 18 7 52 130 161 168 163 165 170 172 178 194 205 206 210 204 202 211 209 210 226 227 218 207 211 211 219 210 220 229 237 244 249 250 246 239 233
308 255 226 225 259 104 24 28 98 159 165 172 180 184 181 182 187 199 246 249 237 236 233 233 226 237 243 241 230 231 231 226 217 210 224 233 235 239 242 246 249 243 241